Zurück zum Katalog

LEMUR 2 TILLINFINITY

AktivWissenschaftSSO
NORAD 63356·PAYLOAD·🇺🇸 United States

Gestartet Mar 26, 2025 von Rocket Lab Launch Complex 1

Loading…

Nächste Überflüge (nächste 24 Stunden)

TLE

AktuellSource: Space-Track

Epoche: Sep 14, 2026, 05:49 UTC

1 63356U 25061F   26257.24284559  .00003035  00000-0  16400-3 0  9993
2 63356  97.5715 232.8022 0016311 303.4907  56.4766 15.15368967 81123

Verfolge LEMUR 2 TILLINFINITY in Echtzeit mit AllMySat

Download on the App Store